| time (UTC) | temp F | wind direction | speed MPH | gust MPH | rain 1hr in | rain 24hr in | rain mn in | humidity % | barometer mb |
| 20260507025504 | 66 | 237 | 4.0 | 12.0 | 0.00 | 0.00 | 0.00 | 65 | 1016.4 |
| 20260507024504 | 66 | 219 | 3.0 | 12.0 | 0.00 | 0.00 | 0.00 | 64 | 1016.4 |
| 20260507024004 | 66 | 222 | 4.0 | 12.0 | 0.00 | 0.00 | 0.00 | 64 | 1016.4 |
| 20260507023504 | 67 | 219 | 5.0 | 8.0 | 0.00 | 0.00 | 0.00 | 63 | 1016.4 |
| 20260507023004 | 67 | 215 | 3.0 | 8.0 | 0.00 | 0.00 | 0.00 | 62 | 1016.4 |
| 20260507022503 | 67 | 233 | 3.0 | 10.0 | 0.00 | 0.00 | 0.00 | 62 | 1016.4 |
| 20260507022003 | 68 | 232 | 4.0 | 10.0 | 0.00 | 0.00 | 0.00 | 61 | 1016.4 |
| 20260507021504 | 68 | 248 | 3.0 | 9.0 | 0.00 | 0.00 | 0.00 | 61 | 1016.2 |
| 20260507021003 | 68 | 264 | 3.0 | 8.0 | 0.00 | 0.00 | 0.00 | 61 | 1016.2 |
| 20260507020003 | 69 | 225 | 4.0 | 10.0 | 0.00 | 0.00 | 0.00 | 60 | 1016.2 |
| 20260507015503 | 69 | 231 | 5.0 | 10.0 | 0.00 | 0.00 | 0.00 | 59 | 1016.2 |
| 20260507015004 | 69 | 207 | 4.0 | 9.0 | 0.00 | 0.00 | 0.00 | 59 | 1016.2 |
| 20260507014503 | 70 | 223 | 5.0 | 9.0 | 0.00 | 0.00 | 0.00 | 58 | 1016.0 |
| 20260507013504 | 70 | 242 | 3.0 | 8.0 | 0.00 | 0.00 | 0.00 | 57 | 1016.0 |
| 20260507013004 | 71 | 238 | 3.0 | 8.0 | 0.00 | 0.00 | 0.00 | 56 | 1016.0 |
| 20260507012504 | 71 | 228 | 3.0 | 8.0 | 0.00 | 0.00 | 0.00 | 56 | 1015.9 |
| 20260507012004 | 71 | 226 | 3.0 | 8.0 | 0.00 | 0.00 | 0.00 | 55 | 1015.9 |
| 20260507010504 | 72 | 233 | 2.0 | 8.0 | 0.00 | 0.00 | 0.00 | 54 | 1015.8 |
| 20260507010004 | 72 | 231 | 4.0 | 9.0 | 0.00 | 0.00 | 0.00 | 53 | 1015.8 |
| 20260507005503 | 72 | 235 | 3.0 | 13.0 | 0.00 | 0.00 | 0.00 | 53 | 1015.6 |
| 20260507005003 | 73 | 213 | 6.0 | 13.0 | 0.00 | 0.00 | 0.00 | 52 | 1015.6 |
| 20260507004004 | 74 | 264 | 5.0 | 14.0 | 0.00 | 0.00 | 0.00 | 52 | 1015.7 |
| 20260507002503 | 74 | 263 | 3.0 | 16.0 | 0.00 | 0.00 | 0.00 | 52 | 1015.7 |
| 20260507001504 | 74 | 265 | 4.0 | 14.0 | 0.00 | 0.00 | 0.00 | 52 | 1015.7 |
| 20260507001004 | 74 | 264 | 4.0 | 10.0 | 0.00 | 0.00 | 0.00 | 52 | 1015.7 |
| 20260507000503 | 74 | 230 | 5.0 | 10.0 | 0.00 | 0.00 | 0.00 | 51 | 1015.7 |
| 20260507000004 | 75 | 229 | 5.0 | 12.0 | 0.00 | 0.00 | 0.00 | 51 | 1015.7 |
| 20260506235004 | 75 | 231 | 4.0 | 12.0 | 0.00 | 0.00 | 0.00 | 49 | 1015.7 |
| 20260506233504 | 76 | 238 | 3.0 | 12.0 | 0.00 | 0.00 | 0.00 | 48 | 1015.7 |
| 20260506233004 | 75 | 253 | 4.0 | 12.0 | 0.00 | 0.00 | 0.00 | 48 | 1015.7 |
| 20260506232504 | 76 | 245 | 5.0 | 12.0 | 0.00 | 0.00 | 0.00 | 48 | 1015.7 |
| 20260506231003 | 77 | 254 | 3.0 | 15.0 | 0.00 | 0.00 | 0.00 | 47 | 1015.7 |
| 20260506225503 | 77 | 260 | 4.0 | 12.0 | 0.00 | 0.00 | 0.00 | 48 | 1016.0 |
| 20260506225004 | 77 | 273 | 6.0 | 12.0 | 0.00 | 0.00 | 0.00 | 47 | 1016.0 |
| 20260506224503 | 77 | 263 | 5.0 | 10.0 | 0.00 | 0.00 | 0.00 | 48 | 1016.0 |
| 20260506224003 | 77 | 260 | 4.0 | 10.0 | 0.00 | 0.00 | 0.00 | 47 | 1016.0 |
| 20260506223504 | 78 | 289 | 4.0 | 13.0 | 0.00 | 0.00 | 0.00 | 48 | 1016.0 |
| 20260506223004 | 77 | 238 | 5.0 | 13.0 | 0.00 | 0.00 | 0.00 | 46 | 1016.2 |
| 20260506222504 | 77 | 245 | 5.0 | 15.0 | 0.00 | 0.00 | 0.00 | 47 | 1016.2 |
| 20260506222004 | 77 | 265 | 5.0 | 15.0 | 0.00 | 0.00 | 0.00 | 47 | 1016.2 |
| 20260506221504 | 78 | 278 | 3.0 | 14.0 | 0.00 | 0.00 | 0.00 | 46 | 1016.2 |
| 20260506221003 | 78 | 221 | 4.0 | 14.0 | 0.00 | 0.00 | 0.00 | 46 | 1016.2 |
| 20260506220503 | 78 | 277 | 7.0 | 14.0 | 0.00 | 0.00 | 0.00 | 46 | 1016.2 |
| 20260506215503 | 78 | 232 | 5.0 | 12.0 | 0.00 | 0.00 | 0.00 | 46 | 1017.2 |
| 20260506215004 | 78 | 292 | 3.0 | 12.0 | 0.00 | 0.00 | 0.00 | 47 | 1017.2 |
| 20260506214503 | 78 | 281 | 2.0 | 10.0 | 0.00 | 0.00 | 0.00 | 47 | 1017.2 |
| 20260506214004 | 78 | 263 | 4.0 | 10.0 | 0.00 | 0.00 | 0.00 | 46 | 1017.2 |
| 20260506213503 | 78 | 215 | 3.0 | 7.0 | 0.00 | 0.00 | 0.00 | 46 | 1017.2 |
| 20260506212504 | 78 | 241 | 3.0 | 12.0 | 0.00 | 0.00 | 0.00 | 45 | 1017.2 |
| 20260506212004 | 77 | 281 | 3.0 | 12.0 | 0.00 | 0.00 | 0.00 | 44 | 1017.2 |
| 20260506211503 | 77 | 228 | 3.0 | 7.0 | 0.00 | 0.00 | 0.00 | 45 | 1017.2 |
| 20260506211004 | 77 | 173 | 4.0 | 12.0 | 0.00 | 0.00 | 0.00 | 43 | 1017.2 |
| 20260506210504 | 77 | 285 | 6.0 | 12.0 | 0.00 | 0.00 | 0.00 | 45 | 1017.2 |
| 20260506210004 | 77 | 268 | 3.0 | 8.0 | 0.00 | 0.00 | 0.00 | 45 | 1017.2 |
| 20260506205004 | 77 | 302 | 3.0 | 12.0 | 0.00 | 0.00 | 0.00 | 47 | 1017.2 |
| 20260506204503 | 77 | 267 | 3.0 | 12.0 | 0.00 | 0.00 | 0.00 | 45 | 1017.2 |
| 20260506204003 | 77 | 242 | 3.0 | 10.0 | 0.00 | 0.00 | 0.00 | 46 | 1017.2 |
| 20260506203503 | 77 | 301 | 4.0 | 13.0 | 0.00 | 0.00 | 0.00 | 47 | 1017.2 |
| 20260506203004 | 76 | 289 | 3.0 | 13.0 | 0.00 | 0.00 | 0.00 | 46 | 1017.5 |
| 20260506202503 | 76 | 222 | 5.0 | 15.0 | 0.00 | 0.00 | 0.00 | 47 | 1017.5 |
| 20260506201504 | 76 | 341 | 6.0 | 13.0 | 0.00 | 0.00 | 0.00 | 48 | 1017.5 |
| 20260506201003 | 75 | 37 | 1.0 | 12.0 | 0.00 | 0.00 | 0.00 | 48 | 1017.5 |
| 20260506200503 | 76 | 355 | 5.0 | 12.0 | 0.00 | 0.00 | 0.00 | 49 | 1017.5 |
| 20260506195504 | 75 | 235 | 3.0 | 9.0 | 0.00 | 0.00 | 0.00 | 50 | 1017.7 |
| 20260506195004 | 74 | 2 | 1.0 | 12.0 | 0.00 | 0.00 | 0.00 | 48 | 1017.7 |
| 20260506194504 | 75 | 282 | 5.0 | 12.0 | 0.00 | 0.00 | 0.00 | 49 | 1018.0 |
| 20260506194004 | 75 | 278 | 7.0 | 12.0 | 0.00 | 0.00 | 0.00 | 47 | 1018.0 |
| 20260506193504 | 75 | 0 | 3.0 | 9.0 | 0.00 | 0.00 | 0.00 | 50 | 1018.0 |
| 20260506193004 | 74 | 28 | 3.0 | 8.0 | 0.00 | 0.00 | 0.00 | 50 | 1018.0 |
| 20260506192504 | 74 | 321 | 5.0 | 8.0 | 0.00 | 0.00 | 0.00 | 49 | 1018.0 |
| 20260506192004 | 74 | 336 | 6.0 | 8.0 | 0.00 | 0.00 | 0.00 | 51 | 1018.0 |
| 20260506191003 | 72 | 228 | 3.0 | 7.0 | 0.00 | 0.00 | 0.00 | 53 | 1018.3 |
| 20260506190504 | 71 | 48 | 3.0 | 7.0 | 0.00 | 0.00 | 0.00 | 53 | 1018.3 |
| 20260506190003 | 72 | 310 | 2.0 | 7.0 | 0.00 | 0.00 | 0.00 | 52 | 1018.3 |
| 20260506185004 | 71 | 77 | 2.0 | 8.0 | 0.00 | 0.00 | 0.00 | 52 | 1018.7 |
| 20260506184504 | 71 | 125 | 3.0 | 8.0 | 0.00 | 0.00 | 0.00 | 51 | 1018.7 |
| 20260506184004 | 72 | 28 | 3.0 | 7.0 | 0.00 | 0.00 | 0.00 | 52 | 1018.7 |
| 20260506182504 | 71 | 32 | 2.0 | 8.0 | 0.00 | 0.00 | 0.00 | 54 | 1018.7 |
| 20260506182004 | 70 | 16 | 3.0 | 8.0 | 0.00 | 0.00 | 0.00 | 55 | 1018.7 |
| 20260506181004 | 70 | 83 | 3.0 | 5.0 | 0.00 | 0.00 | 0.00 | 53 | 1018.7 |
| 20260506180504 | 69 | 66 | 2.0 | 8.0 | 0.00 | 0.00 | 0.00 | 55 | 1019.0 |
| 20260506180004 | 69 | 29 | 2.0 | 8.0 | 0.00 | 0.00 | 0.00 | 57 | 1019.0 |
| 20260506175504 | 69 | 95 | 2.0 | 7.0 | 0.00 | 0.00 | 0.00 | 55 | 1019.0 |
| 20260506175004 | 69 | 330 | 4.0 | 7.0 | 0.00 | 0.00 | 0.00 | 56 | 1019.0 |
| 20260506174503 | 68 | 351 | 2.0 | 6.0 | 0.00 | 0.00 | 0.00 | 61 | 1019.0 |
| 20260506174004 | 68 | 74 | 2.0 | 6.0 | 0.00 | 0.00 | 0.00 | 58 | 1019.0 |
| 20260506173504 | 67 | 41 | 2.0 | 6.0 | 0.00 | 0.00 | 0.00 | 61 | 1019.0 |
| 20260506173004 | 66 | 34 | 2.0 | 6.0 | 0.00 | 0.00 | 0.00 | 62 | 1019.0 |
| 20260506172004 | 65 | 54 | 2.0 | 6.0 | 0.00 | 0.00 | 0.00 | 64 | 1019.0 |
| 20260506171504 | 64 | 300 | 2.0 | 6.0 | 0.00 | 0.00 | 0.00 | 63 | 1019.0 |
| 20260506171004 | 66 | 103 | 3.0 | 6.0 | 0.00 | 0.00 | 0.00 | 62 | 1018.9 |
| 20260506170504 | 66 | 31 | 3.0 | 6.0 | 0.00 | 0.00 | 0.00 | 62 | 1018.9 |
| 20260506170004 | 65 | 29 | 1.0 | 6.0 | 0.00 | 0.00 | 0.00 | 65 | 1018.9 |
| 20260506165504 | 64 | 338 | 4.0 | 7.0 | 0.00 | 0.00 | 0.00 | 65 | 1018.9 |
| 20260506165004 | 65 | 63 | 3.0 | 8.0 | 0.00 | 0.00 | 0.00 | 65 | 1018.9 |
| 20260506164504 | 64 | 38 | 3.0 | 8.0 | 0.00 | 0.00 | 0.00 | 65 | 1018.9 |
| 20260506164004 | 64 | 81 | 2.0 | 6.0 | 0.00 | 0.00 | 0.00 | 68 | 1018.9 |
| 20260506163503 | 63 | 16 | 3.0 | 6.0 | 0.00 | 0.00 | 0.00 | 68 | 1019.0 |
| 20260506163004 | 63 | 10 | 3.0 | 6.0 | 0.00 | 0.00 | 0.00 | 67 | 1019.0 |
| 20260506162504 | 63 | 25 | 3.0 | 6.0 | 0.00 | 0.00 | 0.00 | 69 | 1019.0 |
| 20260506162004 | 62 | 50 | 3.0 | 6.0 | 0.00 | 0.00 | 0.00 | 69 | 1019.0 |
| 20260506161504 | 62 | 53 | 3.0 | 5.0 | 0.00 | 0.00 | 0.00 | 70 | 1019.0 |
| 20260506161004 | 61 | 84 | 2.0 | 5.0 | 0.00 | 0.00 | 0.00 | 72 | 1019.0 |
| 20260506160504 | 61 | 147 | 2.0 | 6.0 | 0.00 | 0.00 | 0.00 | 71 | 1019.0 |
| 20260506160004 | 61 | 66 | 3.0 | 6.0 | 0.00 | 0.00 | 0.00 | 71 | 1019.0 |
| 20260506155504 | 60 | 67 | 2.0 | 6.0 | 0.00 | 0.00 | 0.00 | 74 | 1019.2 |
| 20260506155004 | 60 | 67 | 2.0 | 3.0 | 0.00 | 0.00 | 0.00 | 74 | 1019.2 |
| 20260506154504 | 59 | 61 | 2.0 | 3.0 | 0.00 | 0.00 | 0.00 | 74 | 1019.2 |
| 20260506154004 | 59 | 65 | 2.0 | 3.0 | 0.00 | 0.00 | 0.00 | 74 | 1019.2 |
| 20260506153503 | 59 | 103 | 2.0 | 5.0 | 0.00 | 0.00 | 0.00 | 76 | 1019.2 |
| 20260506153003 | 59 | 36 | 2.0 | 5.0 | 0.00 | 0.00 | 0.00 | 76 | 1019.2 |
| 20260506152504 | 58 | 43 | 2.0 | 5.0 | 0.00 | 0.00 | 0.00 | 76 | 1019.2 |
| 20260506152004 | 58 | 44 | 1.0 | 3.0 | 0.00 | 0.00 | 0.00 | 77 | 1019.2 |
| 20260506151004 | 57 | 36 | 0.0 | 3.0 | 0.00 | 0.00 | 0.00 | 79 | 1019.2 |
| 20260506150504 | 57 | 118 | 1.0 | 5.0 | 0.00 | 0.00 | 0.00 | 80 | 1019.2 |
| 20260506150004 | 56 | 95 | 1.0 | 5.0 | 0.00 | 0.00 | 0.00 | 81 | 1019.2 |
| 20260506145504 | 56 | 67 | 0.0 | 0.0 | 0.00 | 0.00 | 0.00 | 81 | 1019.2 |
| 20260506145003 | 56 | 108 | 0.0 | 0.0 | 0.00 | 0.00 | 0.00 | 82 | 1019.0 |
| 20260506144004 | 55 | 96 | 0.0 | 0.0 | 0.00 | 0.00 | 0.00 | 86 | 1019.0 |
| 20260506143504 | 55 | 48 | 0.0 | 0.0 | 0.00 | 0.00 | 0.00 | 86 | 1019.0 |
| 20260506143003 | 54 | 74 | 0.0 | 0.0 | 0.00 | 0.00 | 0.00 | 88 | 1019.0 |
| 20260506142504 | 54 | 47 | 0.0 | 0.0 | 0.00 | 0.00 | 0.00 | 89 | 1019.0 |
| 20260506142004 | 54 | 31 | 0.0 | 0.0 | 0.00 | 0.00 | 0.00 | 89 | 1018.9 |
| 20260506141504 | 53 | 46 | 0.0 | 0.0 | 0.00 | 0.00 | 0.00 | 90 | 1018.9 |
| 20260506141003 | 53 | 40 | 0.0 | 0.0 | 0.00 | 0.00 | 0.00 | 90 | 1018.9 |
| 20260506140504 | 52 | 225 | 0.0 | 0.0 | 0.00 | 0.00 | 0.00 | 90 | 1018.9 |
| 20260506140004 | 52 | 224 | 0.0 | 0.0 | 0.00 | 0.00 | 0.00 | 91 | 1018.9 |
| 20260506135503 | 52 | 224 | 0.0 | 0.0 | 0.00 | 0.00 | 0.00 | 91 | 1018.9 |
| 20260506133504 | 50 | 224 | 0.0 | 0.0 | 0.00 | 0.00 | 0.00 | 91 | 1018.6 |
| 20260506133004 | 50 | 223 | 0.0 | 0.0 | 0.00 | 0.00 | 0.00 | 91 | 1018.6 |
| 20260506132503 | 49 | 225 | 0.0 | 0.0 | 0.00 | 0.00 | 0.00 | 91 | 1018.6 |
| 20260506132003 | 49 | 227 | 0.0 | 0.0 | 0.00 | 0.00 | 0.00 | 91 | 1018.4 |
| 20260506131503 | 49 | 227 | 0.0 | 0.0 | 0.00 | 0.00 | 0.00 | 91 | 1018.4 |
| 20260506131004 | 49 | 217 | 0.0 | 0.0 | 0.00 | 0.00 | 0.00 | 91 | 1018.4 |
| 20260506130503 | 49 | 217 | 0.0 | 0.0 | 0.00 | 0.00 | 0.00 | 91 | 1018.2 |
| 20260506130005 | 49 | 217 | 0.0 | 0.0 | 0.00 | 0.00 | 0.00 | 90 | 1018.2 |
| 20260506125504 | 49 | 217 | 0.0 | 0.0 | 0.00 | 0.00 | 0.00 | 90 | 1018.2 |
| 20260506125004 | 49 | 217 | 0.0 | 0.0 | 0.00 | 0.00 | 0.00 | 90 | 1018.2 |
| 20260506124504 | 49 | 217 | 0.0 | 0.0 | 0.00 | 0.00 | 0.00 | 90 | 1018.2 |
| 20260506123504 | 49 | 224 | 0.0 | 0.0 | 0.00 | 0.00 | 0.00 | 91 | 1018.2 |
| 20260506123004 | 49 | 160 | 0.0 | 0.0 | 0.00 | 0.00 | 0.00 | 91 | 1018.2 |
| 20260506122504 | 49 | 160 | 0.0 | 0.0 | 0.00 | 0.00 | 0.00 | 91 | 1018.1 |
| 20260506122003 | 49 | 160 | 0.0 | 0.0 | 0.00 | 0.00 | 0.00 | 91 | 1018.1 |
| 20260506121504 | 49 | 160 | 0.0 | 0.0 | 0.00 | 0.00 | 0.00 | 91 | 1018.1 |
| 20260506121004 | 50 | 160 | 0.0 | 0.0 | 0.00 | 0.00 | 0.00 | 90 | 1018.1 |
| 20260506120504 | 50 | 160 | 0.0 | 0.0 | 0.00 | 0.00 | 0.00 | 90 | 1018.1 |
| 20260506115503 | 50 | 160 | 0.0 | 0.0 | 0.00 | 0.01 | 0.00 | 90 | 1018.0 |
| 20260506113503 | 50 | 160 | 0.0 | 0.0 | 0.00 | 0.03 | 0.00 | 90 | 1017.9 |
| 20260506113004 | 50 | 160 | 0.0 | 0.0 | 0.00 | 0.03 | 0.00 | 90 | 1017.9 |
| 20260506112504 | 50 | 160 | 0.0 | 0.0 | 0.00 | 0.04 | 0.00 | 90 | 1017.9 |
| 20260506112003 | 51 | 160 | 0.0 | 0.0 | 0.00 | 0.04 | 0.00 | 90 | 1017.9 |
| 20260506111004 | 51 | 160 | 0.0 | 0.0 | 0.00 | 0.06 | 0.00 | 90 | 1017.9 |
| 20260506110504 | 51 | 160 | 0.0 | 0.0 | 0.00 | 0.06 | 0.00 | 90 | 1017.9 |
| 20260506105503 | 51 | 160 | 0.0 | 0.0 | 0.00 | 0.06 | 0.00 | 90 | 1017.9 |
| 20260506104504 | 51 | 81 | 0.0 | 0.0 | 0.00 | 0.07 | 0.00 | 90 | 1018.0 |
| 20260506104004 | 51 | 52 | 0.0 | 0.0 | 0.00 | 0.07 | 0.00 | 89 | 1018.0 |
| 20260506103503 | 51 | 52 | 0.0 | 0.0 | 0.00 | 0.07 | 0.00 | 89 | 1018.0 |
| 20260506102504 | 51 | 52 | 0.0 | 0.0 | 0.00 | 0.07 | 0.00 | 89 | 1018.0 |
| 20260506101504 | 52 | 52 | 0.0 | 0.0 | 0.00 | 0.07 | 0.00 | 89 | 1018.0 |
| 20260506100005 | 52 | 67 | 0.0 | 0.0 | 0.00 | 0.08 | 0.00 | 87 | 1018.0 |
| 20260506095504 | 52 | 71 | 0.0 | 0.0 | 0.00 | 0.08 | 0.00 | 87 | 1018.0 |
| 20260506094503 | 53 | 71 | 0.0 | 0.0 | 0.00 | 0.08 | 0.00 | 87 | 1018.0 |
| 20260506094004 | 53 | 62 | 0.0 | 0.0 | 0.00 | 0.08 | 0.00 | 86 | 1018.0 |
| 20260506093503 | 53 | 62 | 0.0 | 3.0 | 0.00 | 0.08 | 0.00 | 86 | 1018.0 |
| 20260506092504 | 54 | 1 | 1.0 | 3.0 | 0.00 | 0.08 | 0.00 | 86 | 1018.0 |
| 20260506092004 | 54 | 186 | 1.0 | 3.0 | 0.00 | 0.08 | 0.00 | 86 | 1018.0 |
| 20260506091504 | 54 | 293 | 1.0 | 5.0 | 0.00 | 0.08 | 0.00 | 86 | 1018.0 |
| 20260506091004 | 54 | 196 | 2.0 | 5.0 | 0.00 | 0.08 | 0.00 | 86 | 1018.0 |
| 20260506090004 | 54 | 214 | 2.0 | 5.0 | 0.00 | 0.08 | 0.00 | 86 | 1018.0 |
| 20260506085503 | 54 | 209 | 2.0 | 6.0 | 0.00 | 0.08 | 0.00 | 85 | 1018.0 |
| 20260506085004 | 54 | 220 | 2.0 | 6.0 | 0.00 | 0.08 | 0.00 | 85 | 1018.0 |
| 20260506084504 | 54 | 208 | 3.0 | 6.0 | 0.00 | 0.08 | 0.00 | 85 | 1018.2 |
| 20260506084004 | 54 | 212 | 2.0 | 5.0 | 0.00 | 0.08 | 0.00 | 85 | 1018.2 |
| 20260506083504 | 54 | 199 | 2.0 | 5.0 | 0.00 | 0.08 | 0.00 | 85 | 1018.2 |
| 20260506083003 | 54 | 208 | 2.0 | 5.0 | 0.00 | 0.08 | 0.00 | 85 | 1018.3 |
| 20260506082504 | 54 | 212 | 1.0 | 5.0 | 0.00 | 0.08 | 0.00 | 85 | 1018.3 |
| 20260506082003 | 54 | 212 | 2.0 | 3.0 | 0.00 | 0.08 | 0.00 | 85 | 1018.3 |
| 20260506081504 | 53 | 205 | 1.0 | 3.0 | 0.00 | 0.08 | 0.00 | 84 | 1018.3 |
| 20260506081004 | 53 | 202 | 2.0 | 3.0 | 0.00 | 0.08 | 0.00 | 84 | 1018.4 |
| 20260506080504 | 53 | 194 | 1.0 | 3.0 | 0.00 | 0.08 | 0.00 | 84 | 1018.4 |
| 20260506073504 | 54 | 167 | 1.0 | 2.0 | 0.00 | 0.08 | 0.00 | 82 | 1018.4 |
| 20260506073004 | 54 | 159 | 1.0 | 3.0 | 0.00 | 0.08 | 0.00 | 82 | 1018.4 |
| 20260506072503 | 55 | 190 | 1.0 | 3.0 | 0.00 | 0.08 | 0.00 | 82 | 1018.4 |
| 20260506072003 | 55 | 190 | 1.0 | 2.0 | 0.00 | 0.08 | 0.00 | 81 | 1018.4 |
| 20260506071504 | 55 | 165 | 1.0 | 3.0 | 0.00 | 0.08 | 0.00 | 81 | 1018.4 |
| 20260506071004 | 55 | 200 | 1.0 | 3.0 | 0.00 | 0.08 | 0.00 | 81 | 1018.3 |
| 20260506070504 | 55 | 201 | 2.0 | 5.0 | 0.00 | 0.08 | 0.00 | 80 | 1017.8 |
| 20260506062505 | 56 | 252 | 2.0 | 6.0 | 0.00 | 0.08 | 0.08 | 79 | 1017.8 |
| 20260506061504 | 56 | 248 | 2.0 | 3.0 | 0.00 | 0.08 | 0.08 | 79 | 1017.8 |
| 20260506061004 | 56 | 244 | 2.0 | 3.0 | 0.00 | 0.08 | 0.08 | 79 | 1017.8 |
| 20260506060504 | 56 | 235 | 1.0 | 6.0 | 0.00 | 0.08 | 0.08 | 78 | 1017.6 |
| 20260506051004 | 56 | 228 | 3.0 | 8.0 | 0.00 | 0.08 | 0.08 | 76 | 1017.0 |
| 20260506050503 | 57 | 209 | 3.0 | 7.0 | 0.00 | 0.08 | 0.08 | 75 | 1017.0 |
| 20260506045004 | 57 | 226 | 3.0 | 6.0 | 0.00 | 0.08 | 0.08 | 74 | 1016.8 |
| 20260506044504 | 57 | 217 | 2.0 | 7.0 | 0.00 | 0.08 | 0.08 | 74 | 1016.8 |
| 20260506044004 | 57 | 216 | 2.0 | 7.0 | 0.00 | 0.08 | 0.08 | 73 | 1016.8 |
| 20260506043503 | 57 | 209 | 3.0 | 8.0 | 0.00 | 0.08 | 0.08 | 73 | 1016.8 |
| 20260506043003 | 57 | 215 | 3.0 | 8.0 | 0.00 | 0.08 | 0.08 | 72 | 1016.8 |
| 20260506042504 | 57 | 223 | 3.0 | 7.0 | 0.00 | 0.08 | 0.08 | 72 | 1016.8 |
| 20260506042003 | 58 | 214 | 3.0 | 6.0 | 0.00 | 0.08 | 0.08 | 71 | 1016.8 |
| 20260506041504 | 58 | 209 | 3.0 | 6.0 | 0.00 | 0.08 | 0.08 | 71 | 1016.7 |
| 20260506040503 | 58 | 212 | 3.0 | 6.0 | 0.00 | 0.08 | 0.08 | 69 | 1016.7 |
| 20260506040004 | 58 | 208 | 2.0 | 6.0 | 0.00 | 0.08 | 0.08 | 69 | 1016.4 |
| 20260506035504 | 58 | 205 | 3.0 | 6.0 | 0.00 | 0.08 | 0.08 | 68 | 1016.4 |
| 20260506035004 | 58 | 221 | 2.0 | 6.0 | 0.00 | 0.08 | 0.08 | 67 | 1016.0 |
| 20260506034004 | 59 | 211 | 3.0 | 7.0 | 0.00 | 0.08 | 0.08 | 65 | 1016.0 |
| 20260506033504 | 59 | 193 | 2.0 | 7.0 | 0.00 | 0.08 | 0.08 | 64 | 1016.0 |
| 20260506032004 | 60 | 245 | 2.0 | 8.0 | 0.00 | 0.08 | 0.08 | 62 | 1015.5 |
| 20260506031504 | 60 | 226 | 2.0 | 8.0 | 0.00 | 0.08 | 0.08 | 62 | 1015.5 |
| 20260506031004 | 60 | 217 | 2.0 | 5.0 | 0.00 | 0.08 | 0.08 | 61 | 1015.5 |
| 20260506030504 | 60 | 247 | 2.0 | 5.0 | 0.00 | 0.08 | 0.08 | 61 | 1015.5 |